Hourly Weather Al Khubar

Today, 4 December, Friday

Time Temperature Precipitation Wind Pressure Humidity
00:00 +24°C° 0 mm 3 mps 761 mmHg 82%
01:00 +24°C° 0 mm 3 mps 761 mmHg 82%
02:00 +24°C° 0 mm 3 mps 760 mmHg 82%
03:00 +24°C° 0 mm 3 mps 760 mmHg 81%
04:00 +24°C° 0 mm 3 mps 760 mmHg 81%
05:00 +24°C° 0 mm 3 mps 760 mmHg 81%
06:00 +24°C° 0 mm 3 mps 760 mmHg 80%
07:00 +25°C° 0 mm 3 mps 761 mmHg 75%
08:00 +26°C° 0 mm 3 mps 761 mmHg 71%
09:00 +27°C° 0 mm 3 mps 761 mmHg 66%
10:00 +28°C° 0 mm 4 mps 761 mmHg 62%
11:00 +29°C° 0 mm 4 mps 761 mmHg 59%
12:00 +29°C° 0 mm 5 mps 761 mmHg 56%
13:00 +29°C° 0 mm 5 mps 760 mmHg 57%
14:00 +28°C° 0 mm 6 mps 760 mmHg 59%
15:00 +28°C° 0 mm 6 mps 759 mmHg 61%
16:00 +27°C° 0 mm 6 mps 759 mmHg 66%
17:00 +26°C° 0 mm 6 mps 760 mmHg 70%
18:00 +24°C° 0 mm 6 mps 760 mmHg 75%
19:00 +24°C° 0 mm 6 mps 760 mmHg 76%
20:00 +24°C° 0 mm 6 mps 760 mmHg 77%
21:00 +25°C° 0 mm 5 mps 760 mmHg 78%
22:00 +25°C° 0 mm 5 mps 760 mmHg 79%
23:00 +25°C° 0 mm 5 mps 760 mmHg 80%

Tomorrow, 5 December, Saturday

Time Temperature Precipitation Wind Pressure Humidity
00:00 +23°C° 0 mm 5 mps 760 mmHg 81%
01:00 +23°C° 0 mm 4 mps 759 mmHg 82%
02:00 +23°C° 0 mm 4 mps 759 mmHg 83%
03:00 +23°C° 0 mm 4 mps 758 mmHg 84%
04:00 +23°C° 0 mm 4 mps 759 mmHg 84%
05:00 +23°C° 0 mm 5 mps 759 mmHg 84%
06:00 +23°C° 0 mm 5 mps 759 mmHg 84%
07:00 +25°C° 0 mm 5 mps 760 mmHg 80%
08:00 +26°C° 0 mm 5 mps 760 mmHg 75%
09:00 +27°C° 0 mm 5 mps 760 mmHg 70%
10:00 +27°C° 0 mm 4 mps 760 mmHg 67%
11:00 +28°C° 0 mm 4 mps 759 mmHg 65%
12:00 +28°C° 0 mm 4 mps 759 mmHg 62%
13:00 +28°C° 0 mm 3 mps 758 mmHg 63%
14:00 +28°C° 0 mm 3 mps 758 mmHg 63%
15:00 +27°C° 0 mm 3 mps 757 mmHg 64%
16:00 +27°C° 0 mm 3 mps 757 mmHg 68%
17:00 +26°C° 0 mm 3 mps 757 mmHg 72%
18:00 +25°C° 0 mm 3 mps 758 mmHg 77%
19:00 +25°C° 0 mm 3 mps 757 mmHg 77%
20:00 +25°C° 0 mm 4 mps 757 mmHg 78%
21:00 +25°C° 0 mm 4 mps 757 mmHg 79%
22:00 +25°C° 0 mm 4 mps 757 mmHg 79%
23:00 +25°C° 0 mm 5 mps 757 mmHg 79%

Day after tomorrow, 6 December, Sunday

Time Temperature Precipitation Wind Pressure Humidity
00:00 +25°C° 0 mm 5 mps 757 mmHg 79%
01:00 +25°C° 0 mm 5 mps 756 mmHg 79%
02:00 +25°C° 0 mm 5 mps 756 mmHg 80%
03:00 +25°C° 0 mm 5 mps 756 mmHg 80%
04:00 +23°C° 0 mm 5 mps 756 mmHg 80%
05:00 +23°C° 0 mm 4 mps 756 mmHg 79%
06:00 +23°C° 0 mm 4 mps 756 mmHg 78%
07:00 +25°C° 0 mm 4 mps 757 mmHg 72%
08:00 +26°C° 0 mm 5 mps 757 mmHg 66%
09:00 +27°C° 0 mm 5 mps 757 mmHg 59%
10:00 +29°C° 0 mm 6 mps 757 mmHg 48%
11:00 +32°C° 0 mm 6 mps 756 mmHg 36%
12:00 +35°C° 0 mm 6 mps 756 mmHg 24%
13:00 +34°C° 0 mm 6 mps 755 mmHg 27%
14:00 +33°C° 0 mm 7 mps 755 mmHg 29%
15:00 +32°C° 0 mm 7 mps 755 mmHg 32%
16:00 +29°C° 0 mm 8 mps 755 mmHg 46%
17:00 +27°C° 0 mm 9 mps 756 mmHg 59%
18:00 +24°C° 0 mm 10 mps 757 mmHg 72%
19:00 +23°C° 0 mm 10 mps 757 mmHg 72%
20:00 +22°C° 0 mm 10 mps 758 mmHg 72%
21:00 +22°C° 0 mm 10 mps 759 mmHg 72%
22:00 +21°C° 0 mm 10 mps 759 mmHg 69%
23:00 +21°C° 0 mm 10 mps 759 mmHg 65%

7 December, Monday

Time Temperature Precipitation Wind Pressure Humidity
00:00 +19°C° 0 mm 10 mps 759 mmHg 62%
01:00 +19°C° 0 mm 9 mps 760 mmHg 64%
02:00 +18°C° 0 mm 9 mps 760 mmHg 65%
03:00 +18°C° 0 mm 9 mps 760 mmHg 67%
04:00 +17°C° 0 mm 9 mps 760 mmHg 68%
05:00 +17°C° 0 mm 8 mps 761 mmHg 68%
06:00 +16°C° 0 mm 8 mps 761 mmHg 69%
07:00 +17°C° 0 mm 8 mps 762 mmHg 66%
08:00 +18°C° 0 mm 8 mps 762 mmHg 63%
09:00 +20°C° 0 mm 8 mps 763 mmHg 60%
10:00 +21°C° 0 mm 8 mps 762 mmHg 55%
11:00 +22°C° 0 mm 7 mps 762 mmHg 49%
12:00 +23°C° 0 mm 7 mps 762 mmHg 44%
13:00 +23°C° 0 mm 8 mps 762 mmHg 42%
14:00 +23°C° 0 mm 8 mps 762 mmHg 40%
15:00 +23°C° 0 mm 8 mps 762 mmHg 38%
16:00 +22°C° 0 mm 8 mps 762 mmHg 40%
17:00 +21°C° 0 mm 8 mps 762 mmHg 43%
18:00 +20°C° 0 mm 8 mps 763 mmHg 45%
19:00 +18°C° 0 mm 8 mps 763 mmHg 46%
20:00 +18°C° 0 mm 8 mps 763 mmHg 47%
21:00 +17°C° 0 mm 7 mps 764 mmHg 47%
22:00 +17°C° 0 mm 8 mps 764 mmHg 46%
23:00 +17°C° 0 mm 8 mps 763 mmHg 44%

8 December, Tuesday

Time Temperature Precipitation Wind Pressure Humidity
00:00 +16°C° 0 mm 8 mps 763 mmHg 42%
01:00 +16°C° 0 mm 8 mps 763 mmHg 43%
02:00 +16°C° 0 mm 8 mps 763 mmHg 44%
03:00 +16°C° 0 mm 9 mps 763 mmHg 44%
04:00 +15°C° 0 mm 8 mps 763 mmHg 46%
05:00 +15°C° 0 mm 8 mps 764 mmHg 47%
06:00 +15°C° 0 mm 8 mps 764 mmHg 49%
07:00 +16°C° 0 mm 8 mps 764 mmHg 47%
08:00 +17°C° 0 mm 8 mps 765 mmHg 45%
09:00 +18°C° 0 mm 8 mps 765 mmHg 43%
10:00 +20°C° 0 mm 8 mps 764 mmHg 42%
11:00 +21°C° 0 mm 8 mps 764 mmHg 41%
12:00 +22°C° 0 mm 8 mps 763 mmHg 39%
13:00 +22°C° 0 mm 8 mps 763 mmHg 39%
14:00 +22°C° 0 mm 8 mps 763 mmHg 39%
15:00 +22°C° 0 mm 8 mps 763 mmHg 39%
16:00 +21°C° 0 mm 8 mps 763 mmHg 44%
17:00 +20°C° 0 mm 8 mps 763 mmHg 48%
18:00 +18°C° 0 mm 7 mps 764 mmHg 52%
19:00 +17°C° 0 mm 7 mps 764 mmHg 50%
20:00 +17°C° 0 mm 7 mps 764 mmHg 49%
21:00 +17°C° 0 mm 7 mps 764 mmHg 47%
22:00 +16°C° 0 mm 7 mps 764 mmHg 45%
23:00 +16°C° 0 mm 7 mps 764 mmHg 43%

9 December, Wednesday

Time Temperature Precipitation Wind Pressure Humidity
00:00 +15°C° 0 mm 7 mps 764 mmHg 42%
01:00 +15°C° 0 mm 7 mps 764 mmHg 42%
02:00 +15°C° 0 mm 7 mps 764 mmHg 41%
03:00 +14°C° 0 mm 7 mps 764 mmHg 41%
04:00 +14°C° 0 mm 7 mps 764 mmHg 42%
05:00 +14°C° 0 mm 7 mps 764 mmHg 43%
06:00 +12°C° 0 mm 7 mps 764 mmHg 44%
07:00 +14°C° 0 mm 7 mps 764 mmHg 42%
08:00 +16°C° 0 mm 7 mps 764 mmHg 40%
09:00 +17°C° 0 mm 7 mps 765 mmHg 38%
10:00 +18°C° 0 mm 7 mps 764 mmHg 38%
11:00 +21°C° 0 mm 7 mps 764 mmHg 38%
12:00 +22°C° 0 mm 7 mps 763 mmHg 38%
13:00 +22°C° 0 mm 7 mps 763 mmHg 36%
14:00 +22°C° 0 mm 7 mps 762 mmHg 34%
15:00 +23°C° 0 mm 7 mps 762 mmHg 33%
16:00 +21°C° 0 mm 7 mps 762 mmHg 36%
17:00 +20°C° 0 mm 7 mps 762 mmHg 40%
18:00 +18°C° 0 mm 7 mps 763 mmHg 44%
19:00 +17°C° 0 mm 7 mps 763 mmHg 43%
20:00 +17°C° 0 mm 6 mps 763 mmHg 42%
21:00 +16°C° 0 mm 6 mps 763 mmHg 42%
22:00 +16°C° 0 mm 6 mps 763 mmHg 42%
23:00 +15°C° 0 mm 6 mps 763 mmHg 41%
Show more